[[{"header":{"parameterUnit":"m.s-1","parameterCategory":1,"la1":30.2991,"la2":30.254,"lo1":-89.0895,"lo2":-89.0444,"dy":0.0017,"dx":0.0017,"nx":28,"ny":28,"refTime":"2025-07-18T09:00:00:Z","depth":0,"parameterNumber":2,"parameterNumberName":"U-component_of_WINDS"},"data":[0,0,0,0,0,0,0,0,0,0,0,0,0,0,0,0,0,0,0,0,0,0,0,0,0,0,0,0,0,0,0,0,0,0,0,0,0,0,0,0,0,0,0,0,0,0,0,0,0,0,0,0,0,0,0,0,0,0,1.6987,1.6988,0,1.7065,1.7066,1.7067,1.7076,1.7076,1.7075,1.7074,1.7155,1.7158,1.716,0,0,0,0,0,0,0,0,0,0,0,0,0,1.6845,1.6848,1.6987,1.6988,1.6989,1.7065,1.7066,1.7067,1.7077,1.7076,1.7075,1.7074,1.7154,1.7157,1.7161,0,0,0,0,0,0,0,0,0,0,0,0,0,1.6913,1.6848,1.6987,1.7003,1.7005,1.7065,1.7066,1.7067,1.7077,1.7076,1.7075,1.7073,1.7153,1.7157,1.7161,1.721,0,0,1.7174,1.7176,0,0,0,0,0,0,0,0,1.6909,1.6918,1.6999,1.7002,1.7004,1.706,1.7046,1.7115,1.7077,1.7049,1.7074,1.7073,1.7124,1.7131,1.7148,1.7214,1.7218,1.7175,1.7177,1.7179,1.718,0,0,0,0,0,0,0,1.6905,1.6915,1.7018,1.7,1.7003,1.7006,1.7014,1.7059,1.7092,1.7052,1.7053,1.7062,1.7125,1.7144,1.715,1.7219,1.7174,1.7178,1.7181,1.7183,1.7329,1.733,0,0,0,0,0,0,1.6897,1.6911,1.7015,1.702,1.6953,1.7009,1.7019,1.7043,1.7092,1.7098,1.7063,1.7062,1.7137,1.7145,1.7153,1.7213,1.7179,1.7183,1.7185,1.7327,1.7329,1.733,0,0,0,0,0,0,1.6894,1.6906,1.7012,1.6966,1.698,1.7013,1.704,1.7045,1.7064,1.71,1.7106,1.7075,1.7136,1.7147,1.7196,1.7216,1.7185,1.7189,1.7326,1.7328,1.733,1.7334,0,0,0,0,0,0,1.689,1.6905,1.6924,1.6966,1.6982,1.7054,1.7042,1.7048,1.7071,1.7071,1.7114,1.712,1.7136,1.7189,1.72,1.7221,1.7192,1.7324,1.7327,1.7329,1.7333,1.7336,1.734,0,0,0,0,0,1.6885,1.6923,1.6925,1.6938,1.7007,1.7055,1.7064,1.7082,1.7073,1.7092,1.7115,1.7118,1.7212,1.7194,1.7206,1.7229,1.7323,1.7326,1.7329,1.7331,1.7336,1.7339,0,0,0,0,0,0,1.6882,1.6928,1.6932,1.6984,1.7016,1.7057,1.7082,1.7087,1.7121,1.712,1.7141,1.7151,1.7199,1.7219,1.7198,1.7279,1.7267,1.7272,1.7264,1.7269,1.7272,1.7266,1.7196,0,0,0,0,0,1.6888,1.6923,1.6962,1.7004,1.702,1.7048,1.707,1.7081,1.7115,1.7128,1.7155,1.7187,1.7224,1.7247,1.7283,1.7336,1.7345,1.7357,1.7361,1.7363,1.7368,1.7396,1.7402,1.734,1.734,1.734,0,0,1.69,1.6929,1.695,1.7005,1.703,1.7066,1.7059,1.7098,1.7125,1.7134,1.7182,1.7202,1.724,1.729,1.7314,1.7309,1.7387,1.7367,1.7369,1.7372,1.74,1.7406,1.7411,1.7342,1.7342,1.7342,0,0,1.694,1.6966,1.7004,1.703,1.7068,1.7087,1.7096,1.7136,1.715,1.7198,1.7206,1.7238,1.7301,1.7327,1.7349,1.7398,1.7402,1.7409,1.7427,1.7454,1.7459,1.7464,1.748,1.7486,1.7413,1.7413,1.7413,0,1.6949,1.7004,1.7023,1.7061,1.7085,1.7094,1.7133,1.7157,1.7205,1.7221,1.7215,1.7293,1.7319,1.7376,1.7388,1.7405,1.7416,1.7404,1.7457,1.7462,1.7466,1.7482,1.7489,1.7414,1.7414,1.7414,1.7414,0,1.7014,1.7052,1.7078,1.7124,1.7151,1.7189,1.7213,1.7238,1.7247,1.7266,1.7314,1.7346,1.7388,1.7402,1.7411,1.746,1.7455,1.7453,1.744,1.7472,1.7488,1.7494,1.7415,1.7414,1.7414,1.7414,0,0,1.7054,1.711,1.712,1.714,1.7184,1.7213,1.7252,1.7293,1.7313,1.7346,1.7378,1.7431,1.7429,1.7453,1.7465,1.749,1.7526,1.7484,1.7485,1.749,1.758,1.7581,1.7588,1.7528,1.753,1.7531,1.7577,0,1.7099,1.7168,1.7185,1.7244,1.7279,1.7288,1.7322,1.7352,1.737,1.7402,1.7423,1.746,1.7454,1.7469,1.7493,1.7516,1.7544,1.7513,1.7558,1.756,1.7548,1.7597,1.7599,1.764,1.7583,1.7584,1.7585,0,1.716,1.7194,1.7256,1.7294,1.7309,1.7339,1.7377,1.7408,1.7442,1.7454,1.7481,1.7491,1.7531,1.7517,1.7572,1.755,1.757,1.7584,1.7586,1.7591,1.7574,1.7602,1.7654,1.766,1.7595,1.7594,1.7593,0,1.7182,1.7243,1.7288,1.7306,1.7352,1.7372,1.7392,1.7425,1.7449,1.7482,1.7498,1.7536,1.7556,1.7585,1.7605,1.7593,1.7658,1.7646,1.7669,1.7668,1.7682,1.7681,1.7737,1.7696,1.7695,1.7695,1.7695,0,1.7229,1.7267,1.7299,1.7326,1.7368,1.7388,1.7429,1.745,1.7479,1.751,1.7521,1.755,1.7574,1.7607,1.7623,1.7665,1.7675,1.7685,1.7689,1.7684,1.7683,1.7697,1.7694,1.7697,1.7697,1.7696,1.7696,0,1.7261,1.7284,1.7334,1.7373,1.7384,1.7413,1.7447,1.7473,1.7492,1.7532,1.7542,1.7572,1.761,1.7633,1.7682,1.7692,1.774,1.7742,1.7728,1.773,1.7751,1.7748,1.7818,1.7828,1.778,1.7781,1.7781,0,1.729,1.7319,1.7361,1.7383,1.7403,1.7438,1.7462,1.7483,1.7507,1.7547,1.7569,1.7609,1.7641,1.7702,1.7728,1.7765,1.7768,1.779,1.7774,1.7768,1.7768,1.7766,1.7768,1.7793,1.7793,1.7794,1.7794,0,1.7337,1.7347,1.7381,1.7419,1.7447,1.7478,1.7508,1.7525,1.7551,1.7578,1.7617,1.7642,1.7692,1.773,1.777,1.779,1.7796,1.7799,1.7806,1.7801,1.7791,1.7796,1.7735,1.7797,1.7797,1.7797,1.7796,1.7796,1.7368,1.7394,1.7428,1.7465,1.749,1.7518,1.7545,1.7567,1.7601,1.7642,1.7653,1.7694,1.7727,1.778,1.7802,1.7834,1.783,1.7841,1.7843,1.7846,1.7846,1.7786,1.7841,1.7841,1.7841,1.7841,1.7841,0,1.7415,1.7438,1.7472,1.7514,1.7543,1.7546,1.758,1.7604,1.764,1.7671,1.7702,1.7747,1.7785,1.7813,1.7851,1.7872,1.7875,1.7881,1.7879,1.7884,1.7847,1.7837,1.7877,1.7877,1.7877,1.7877,1.7877,1.7877,1.7444,1.7487,1.7501,1.7557,1.7579,1.762,1.7639,1.7665,1.7689,1.7739,1.777,1.7788,1.7817,1.7858,1.7892,1.7899,1.7913,1.7918,1.7925,1.789,1.7887,1.7883,1.7873,1.792,1.7921,1.7959,1.796,1.796]},{"header":{"parameterUnit":"m.s-1","parameterCategory":1,"la1":30.2991,"la2":30.254,"lo1":-89.0895,"lo2":-89.0444,"dy":0.0017,"dx":0.0017,"nx":28,"ny":28,"refTime":"2025-07-18T09:00:00:Z","depth":0,"parameterNumber":3,"parameterNumberName":"V-component_of_WINDS"},"data":[0,0,0,0,0,0,0,0,0,0,0,0,0,0,0,0,0,0,0,0,0,0,0,0,0,0,0,0,0,0,0,0,0,0,0,0,0,0,0,0,0,0,0,0,0,0,0,0,0,0,0,0,0,0,0,0,0,0,3.8885,3.8885,0,3.8819,3.8818,3.8818,3.8805,3.8806,3.8807,3.8807,3.8732,3.8729,3.8727,0,0,0,0,0,0,0,0,0,0,0,0,0,3.8994,3.8993,3.8886,3.8885,3.8884,3.8819,3.8818,3.8818,3.8805,3.8806,3.8807,3.8807,3.8733,3.873,3.8727,0,0,0,0,0,0,0,0,0,0,0,0,0,3.8939,3.8992,3.8886,3.887,3.8868,3.882,3.8818,3.8817,3.8805,3.8806,3.8807,3.8808,3.8734,3.873,3.8726,3.8686,0,0,3.8715,3.8713,0,0,0,0,0,0,0,0,3.8943,3.8935,3.8873,3.8871,3.8869,3.8822,3.8829,3.8773,3.8805,3.8829,3.8807,3.8808,3.8761,3.8755,3.874,3.8683,3.8679,3.8714,3.8712,3.871,3.8709,0,0,0,0,0,0,0,3.8946,3.8938,3.8859,3.8872,3.887,3.8864,3.8857,3.8819,3.879,3.8827,3.8826,3.8819,3.8759,3.8744,3.8738,3.8678,3.8714,3.8711,3.8709,3.8707,3.8584,3.8583,0,0,0,0,0,0,3.8954,3.8941,3.8861,3.8857,3.8909,3.8862,3.8854,3.8836,3.8791,3.8785,3.8818,3.8818,3.875,3.8743,3.8736,3.8685,3.871,3.8707,3.8705,3.8585,3.8584,3.8582,0,0,0,0,0,0,3.8956,3.8947,3.8864,3.8899,3.8888,3.8859,3.8839,3.8834,3.8819,3.8784,3.8779,3.8808,3.875,3.8741,3.8699,3.8683,3.8705,3.8702,3.8586,3.8584,3.8583,3.8585,0,0,0,0,0,0,3.896,3.8948,3.8934,3.8899,3.8886,3.883,3.8838,3.8832,3.8813,3.8813,3.8773,3.8767,3.875,3.8705,3.8695,3.8678,3.8699,3.8587,3.8585,3.8584,3.8586,3.8584,3.8582,0,0,0,0,0,3.8963,3.8936,3.8933,3.8924,3.8869,3.883,3.8822,3.8805,3.8812,3.8796,3.8774,3.8768,3.8686,3.87,3.869,3.8671,3.8588,3.8586,3.8584,3.8587,3.8584,3.8582,0,0,0,0,0,0,3.8967,3.8931,3.8928,3.8888,3.8863,3.8828,3.8808,3.8802,3.8772,3.8773,3.8751,3.8742,3.8701,3.8682,3.8698,3.8629,3.8637,3.8633,3.8644,3.8641,3.8638,3.8643,3.8696,0,0,0,0,0,3.8964,3.8937,3.8906,3.8874,3.8862,3.8837,3.8819,3.8809,3.878,3.8768,3.8743,3.8713,3.8681,3.866,3.8628,3.8584,3.8574,3.8565,3.8563,3.8561,3.8557,3.8532,3.8527,3.8575,3.8575,3.8575,0,0,3.8955,3.8932,3.8917,3.8874,3.8853,3.8824,3.8828,3.8797,3.8775,3.8763,3.8722,3.8703,3.8668,3.8625,3.8604,3.8607,3.8542,3.8558,3.8557,3.8554,3.8529,3.8524,3.852,3.8573,3.8574,3.8574,0,0,3.8926,3.8906,3.8878,3.8857,3.8826,3.881,3.8803,3.8769,3.8756,3.8716,3.8706,3.8678,3.8623,3.8598,3.8579,3.854,3.8533,3.853,3.8518,3.8493,3.849,3.8486,3.8472,3.8467,3.8527,3.8527,3.8527,0,3.8919,3.8877,3.8863,3.8833,3.8814,3.8805,3.8774,3.8754,3.8712,3.8698,3.8703,3.8633,3.8609,3.856,3.8551,3.8536,3.8525,3.8535,3.8492,3.8488,3.8485,3.8471,3.8465,3.8527,3.8527,3.8527,3.8527,0,3.887,3.8841,3.8821,3.8785,3.8763,3.8733,3.8712,3.8692,3.8683,3.8666,3.8624,3.8595,3.8557,3.8545,3.8535,3.8494,3.8497,3.8497,3.8504,3.848,3.8467,3.8461,3.8526,3.8526,3.8526,3.8526,0,0,3.884,3.8797,3.879,3.8773,3.8738,3.8714,3.8683,3.8648,3.8631,3.8603,3.8575,3.8528,3.8529,3.8506,3.8493,3.8472,3.8443,3.8474,3.8473,3.8469,3.8395,3.8395,3.8389,3.8438,3.8437,3.8436,3.8398,0,3.8806,3.8753,3.8739,3.8692,3.8665,3.8656,3.8628,3.8602,3.8586,3.8558,3.8538,3.8506,3.8509,3.8495,3.8474,3.8451,3.8427,3.8454,3.841,3.8409,3.8419,3.8382,3.8382,3.8346,3.8392,3.8391,3.8391,0,3.8759,3.8733,3.8684,3.8653,3.8641,3.8617,3.8584,3.8559,3.8529,3.8518,3.8494,3.8483,3.8448,3.8458,3.8408,3.8426,3.8407,3.8393,3.8392,3.8386,3.8398,3.8375,3.8335,3.8329,3.8382,3.8383,3.8384,0,3.8741,3.8693,3.8659,3.8644,3.8607,3.859,3.8574,3.8545,3.8525,3.8495,3.8482,3.8448,3.8429,3.8401,3.8381,3.839,3.8333,3.8341,3.8321,3.8321,3.8309,3.831,3.8264,3.8298,3.8298,3.8298,3.8298,0,3.8704,3.8675,3.865,3.8629,3.8595,3.8578,3.8545,3.8527,3.8502,3.8475,3.8464,3.8438,3.8413,3.8384,3.8367,3.8328,3.832,3.8308,3.8304,3.8309,3.8311,3.8296,3.8298,3.8296,3.8297,3.8297,3.8297,0,3.8678,3.8661,3.8622,3.8591,3.8583,3.8559,3.8531,3.8509,3.8492,3.8458,3.8449,3.8422,3.8387,3.8364,3.8318,3.8307,3.8264,3.8261,3.8275,3.8273,3.8254,3.8256,3.8198,3.8189,3.8229,3.8228,3.8228,0,3.8656,3.8634,3.8601,3.8583,3.8567,3.8539,3.852,3.8502,3.8481,3.8446,3.8427,3.8392,3.8363,3.8307,3.8281,3.8246,3.8241,3.8223,3.8236,3.8241,3.824,3.8242,3.8239,3.8221,3.8221,3.822,3.822,0,3.8617,3.861,3.8584,3.8554,3.8532,3.8507,3.8482,3.8467,3.8445,3.8422,3.8388,3.8365,3.832,3.8284,3.8247,3.8227,3.8219,3.8217,3.821,3.8214,3.8224,3.8218,3.8269,3.8218,3.8218,3.8218,3.8218,3.8218,3.8592,3.8572,3.8546,3.8516,3.8496,3.8473,3.8451,3.8433,3.8404,3.8368,3.8358,3.8322,3.8291,3.8241,3.8221,3.819,3.8192,3.8183,3.818,3.8178,3.8178,3.8229,3.8183,3.8183,3.8183,3.8183,3.8183,0,3.8552,3.8536,3.8509,3.8476,3.8452,3.845,3.8422,3.8402,3.8371,3.8345,3.8317,3.8277,3.8242,3.8215,3.8179,3.816,3.8155,3.8151,3.8152,3.8147,3.8178,3.8187,3.8155,3.8155,3.8155,3.8155,3.8155,3.8155,3.8529,3.8495,3.8485,3.844,3.8422,3.8389,3.8373,3.8351,3.833,3.8287,3.8259,3.8242,3.8215,3.8177,3.8145,3.8137,3.8124,3.8121,3.8112,3.8142,3.8145,3.8148,3.8156,3.8118,3.8118,3.8084,3.8083,3.8083]}]]